GW4583 Weather Reports


time (UTC)temp
C
wind
direction
speed
KPH
gust
KPH
rain 1hr
cm
rain 24hr
cm
rain mn
cm
humidity
%
barometer
mb
20260510193943 28 287 3.2 19.3 0.00 0.00 0.00 80 1016.1
20260510193438 28 284 9.7 27.4 0.00 0.00 0.00 80 1016.2
20260510192934 28 255 6.4 19.3 0.00 0.00 0.00 78 1015.9
20260510192429 29 252 17.7 27.4 0.00 0.00 0.00 77 1016.1
20260510191925 29 267 9.7 27.4 0.00 0.00 0.00 78 1016.2
20260510191421 29 268 16.1 24.1 0.00 0.00 0.00 77 1015.9
20260510190919 29 278 11.3 25.7 0.00 0.00 0.00 78 1015.9
20260510190416 29 242 11.3 25.7 0.00 0.00 0.00 78 1015.9
20260510185912 30 287 16.1 25.7 0.00 0.00 0.00 76 1016.0
20260510185410 29 296 19.3 24.1 0.00 0.00 0.00 78 1016.1
20260510184907 28 245 16.1 22.5 0.00 0.00 0.00 79 1016.1
20260510184404 30 269 12.9 17.7 0.00 0.00 0.00 77 1016.1
20260510183904 30 235 8.0 25.7 0.00 0.00 0.00 76 1016.1
20260510183401 30 279 9.7 25.7 0.00 0.00 0.00 77 1016.1
20260510182901 30 249 9.7 14.5 0.00 0.00 0.00 75 1016.2
20260510182357 30 246 4.8 12.9 0.00 0.00 0.00 75 1016.4
20260510181853 29 273 12.9 16.1 0.00 0.00 0.00 78 1016.5
20260510181351 28 255 6.4 24.1 0.00 0.00 0.00 80 1016.5
20260510180847 29 292 14.5 22.5 0.00 0.00 0.00 77 1016.6
20260510180344 30 227 11.3 22.5 0.00 0.00 0.00 77 1016.4
20260510175841 30 240 6.4 19.3 0.00 0.00 0.00 76 1016.3
20260510175337 30 202 16.1 20.9 0.00 0.00 0.00 76 1016.4
20260510174833 30 280 4.8 17.7 0.00 0.00 0.00 77 1016.3
20260510174331 29 258 22.5 24.1 0.00 0.00 0.00 79 1016.5
20260510173827 30 269 14.5 20.9 0.00 0.00 0.00 79 1016.8
20260510173323 30 246 12.9 27.4 0.00 0.00 0.00 79 1016.6
20260510172819 30 268 11.3 24.1 0.00 0.00 0.00 78 1016.5
20260510172315 29 262 11.3 20.9 0.00 0.00 0.00 78 1016.7
20260510171812 29 272 14.5 29.0 0.00 0.00 0.00 80 1016.8
20260510171309 30 260 9.7 25.7 0.00 0.00 0.00 79 1016.7
20260510170806 30 293 16.1 17.7 0.00 0.00 0.00 78 1017.0
20260510170302 30 285 11.3 20.9 0.00 0.00 0.00 77 1016.8
20260510165758 30 268 9.7 14.5 0.00 0.00 0.00 78 1016.6
20260510165254 30 299 22.5 29.0 0.00 0.00 0.00 77 1017.0
20260510164752 30 251 9.7 20.9 0.00 0.00 0.00 75 1016.9
20260510164249 30 257 14.5 19.3 0.00 0.00 0.00 75 1016.8
20260510163749 30 272 6.4 20.9 0.00 0.00 0.00 73 1016.7
20260510163245 30 297 14.5 24.1 0.00 0.00 0.00 75 1016.8
20260510162745 30 259 9.7 27.4 0.00 0.00 0.00 74 1016.7
20260510162242 30 210 1.6 14.5 0.00 0.00 0.00 75 1016.7
20260510161738 30 224 3.2 14.5 0.00 0.00 0.00 72 1016.8
20260510161234 31 264 6.4 12.9 0.00 0.00 0.00 72 1016.8
20260510160732 30 268 4.8 20.9 0.00 0.00 0.00 72 1016.8
20260510160227 30 262 8.0 12.9 0.00 0.00 0.00 70 1016.9
20260510155723 31 221 1.6 11.3 0.00 0.00 0.00 68 1016.8
20260510155219 30 262 11.3 11.3 0.00 0.00 0.00 69 1016.8
20260510154715 30 293 14.5 16.1 0.00 0.00 0.00 72 1016.8
20260510154211 30 264 3.2 9.7 0.00 0.00 0.00 69 1017.1
20260510153706 31 204 6.4 16.1 0.00 0.00 0.00 70 1016.7
20260510153202 30 256 9.7 9.7 0.00 0.00 0.00 69 1016.5
20260510152659 30 217 9.7 17.7 0.00 0.00 0.00 70 1016.7
20260510152155 30 214 11.3 17.7 0.00 0.00 0.00 69 1016.6
20260510151652 30 215 4.8 8.0 0.00 0.00 0.00 68 1016.5
20260510151151 30 259 3.2 19.3 0.00 0.00 0.00 67 1016.6
20260510150646 30 214 9.7 14.5 0.00 0.00 0.00 70 1016.8
20260510150141 30 217 9.7 17.7 0.00 0.00 0.00 69 1016.9
20260510145638 30 223 11.3 19.3 0.00 0.00 0.00 67 1016.7
20260510145134 30 228 3.2 6.4 0.00 0.00 0.00 69 1016.5
20260510144630 30 165 8.0 14.5 0.00 0.00 0.00 70 1016.7
20260510144127 30 281 3.2 11.3 0.00 0.00 0.00 72 1016.8
20260510143622 30 268 3.2 9.7 0.00 0.00 0.00 74 1016.8
20260510143119 29 206 20.9 22.5 0.00 0.00 0.00 74 1016.9
20260510142616 29 204 3.2 12.9 0.00 0.00 0.00 74 1016.8
20260510142113 28 194 14.5 16.1 0.00 0.00 0.00 76 1016.7
20260510141609 28 211 11.3 16.1 0.00 0.00 0.00 77 1016.3
20260510141108 28 193 9.7 11.3 0.00 0.00 0.00 77 1016.4
20260510140603 28 165 11.3 16.1 0.00 0.00 0.00 79 1016.4
20260510135558 27 187 14.5 16.1 0.00 0.00 0.00 79 1016.5
20260510135054 27 170 3.2 16.1 0.00 0.00 0.00 80 1016.3
20260510134551 27 169 9.7 16.1 0.00 0.00 0.00 80 1016.3
20260510134048 27 185 9.7 11.3 0.00 0.00 0.00 80 1016.5
20260510133544 27 171 12.9 17.7 0.00 0.00 0.00 81 1016.7
20260510133040 27 153 16.1 16.1 0.00 0.00 0.00 81 1016.7
20260510132537 26 179 11.3 14.5 0.00 0.00 0.00 82 1016.5
20260510132034 27 195 4.8 9.7 0.00 0.00 0.00 82 1016.4
20260510131532 26 155 6.4 11.3 0.00 0.00 0.00 82 1016.4
20260510131029 26 168 8.0 14.5 0.00 0.00 0.00 83 1016.4
20260510130525 26 149 6.4 8.0 0.00 0.00 0.00 84 1016.4
20260510130023 26 180 6.4 16.1 0.00 0.00 0.00 84 1016.4
20260510125519 26 140 9.7 17.7 0.00 0.00 0.00 84 1016.3
20260510125015 25 200 4.8 12.9 0.00 0.00 0.00 85 1016.0
20260510124512 25 183 11.3 17.7 0.00 0.00 0.00 85 1016.2
20260510124010 25 176 11.3 11.3 0.00 0.00 0.00 85 1016.0
20260510123510 25 175 11.3 14.5 0.00 0.00 0.00 86 1016.0
20260510123006 25 196 8.0 14.5 0.00 0.00 0.00 87 1016.0
20260510122502 25 166 11.3 12.9 0.00 0.00 0.00 87 1016.0
20260510121958 25 136 4.8 6.4 0.00 0.00 0.00 88 1015.9
20260510121455 24 176 6.4 9.7 0.00 0.00 0.00 89 1015.9
20260510120952 24 172 6.4 8.0 0.00 0.00 0.00 90 1015.9
20260510120450 23 184 6.4 9.7 0.00 0.00 0.00 91 1015.6
20260510115945 23 175 6.4 8.0 0.00 0.00 0.00 91 1015.7
20260510115443 23 177 1.6 9.7 0.00 0.00 0.00 92 1015.6
20260510114938 23 157 3.2 8.0 0.00 0.00 0.00 93 1015.5
20260510114436 23 179 8.0 9.7 0.00 0.00 0.00 94 1015.4
20260510113931 23 187 6.4 9.7 0.00 0.00 0.00 94 1015.4
20260510113427 23 159 3.2 9.7 0.00 0.00 0.00 94 1015.5
20260510112925 23 181 4.8 8.0 0.00 0.00 0.00 95 1015.3
20260510112422 23 198 1.6 9.7 0.00 0.00 0.00 95 1015.1
20260510111918 22 180 8.0 9.7 0.00 0.00 0.00 95 1015.1
20260510111414 22 188 4.8 8.0 0.00 0.00 0.00 96 1015.0
20260510110909 22 166 3.2 11.3 0.00 0.00 0.00 96 1015.1
20260510110401 22 214 4.8 6.4 0.00 0.00 0.00 97 1015.0
20260510105857 22 160 4.8 6.4 0.00 0.00 0.00 97 1014.7
20260510105356 22 146 3.2 8.0 0.00 0.00 0.00 97 1014.4
20260510104852 22 167 4.8 9.7 0.00 0.00 0.00 97 1014.7
20260510104350 22 180 1.6 4.8 0.00 0.00 0.00 97 1014.5
20260510103846 22 176 3.2 6.4 0.00 0.00 0.00 97 1014.5
20260510103343 22 175 1.6 4.8 0.00 0.00 0.00 97 1014.4
20260510102839 22 166 1.6 4.8 0.00 0.00 0.00 96 1014.5
20260510102335 22 184 0.0 3.2 0.00 0.00 0.00 96 1014.4
20260510101832 22 187 3.2 3.2 0.00 0.00 0.00 96 1014.5
20260510101330 22 199 3.2 3.2 0.00 0.00 0.00 96 1014.7
20260510100826 22 180 3.2 3.2 0.00 0.00 0.00 96 1014.2
20260510100324 22 102 0.0 0.0 0.00 0.00 0.00 96 1014.1
20260510095820 22 72 0.0 1.6 0.00 0.00 0.00 95 1014.2
20260510095315 22 183 0.0 3.2 0.00 0.00 0.00 95 1014.1
20260510094814 22 188 0.0 4.8 0.00 0.00 0.00 95 1014.0
20260510094310 22 206 3.2 3.2 0.00 0.00 0.00 95 1014.0
20260510093806 22 186 0.0 3.2 0.00 0.00 0.00 95 1014.0
20260510093303 22 154 0.0 1.6 0.00 0.00 0.00 95 1014.1
20260510092759 22 111 0.0 3.2 0.00 0.00 0.00 95 1013.9
20260510092255 22 29 0.0 0.0 0.00 0.00 0.00 95 1013.7
20260510091750 22 190 0.0 3.2 0.00 0.00 0.00 94 1013.6
20260510091248 22 155 0.0 0.0 0.00 0.00 0.00 94 1013.8
20260510090744 22 179 1.6 4.8 0.00 0.00 0.00 94 1013.6
20260510090242 22 120 3.2 6.4 0.00 0.00 0.00 94 1013.6
20260510085737 22 100 1.6 3.2 0.00 0.00 0.00 94 1013.7
20260510085231 22 153 1.6 4.8 0.00 0.00 0.00 94 1013.4
20260510084728 23 100 3.2 3.2 0.00 0.00 0.00 94 1013.5
20260510084225 23 55 0.0 3.2 0.00 0.00 0.00 94 1013.5
20260510083721 23 149 0.0 1.6 0.00 0.00 0.00 94 1013.4
20260510083219 23 89 0.0 3.2 0.00 0.00 0.00 93 1013.5
20260510082714 23 174 0.0 3.2 0.00 0.00 0.00 93 1013.5
20260510082211 23 150 3.2 6.4 0.00 0.00 0.00 93 1013.2
20260510081704 23 166 1.6 3.2 0.00 0.00 0.00 93 1013.3
20260510081201 23 149 4.8 6.4 0.00 0.00 0.00 93 1013.2
20260510080700 23 164 0.0 4.8 0.00 0.00 0.00 93 1013.4
20260510080157 23 135 1.6 6.4 0.00 0.00 0.00 93 1013.2
20260510075654 23 113 3.2 11.3 0.00 0.00 0.00 93 1013.3
20260510075152 23 156 4.8 4.8 0.00 0.00 0.00 93 1013.2
20260510074649 23 174 3.2 8.0 0.00 0.00 0.00 94 1013.1
20260510074144 23 172 6.4 8.0 0.00 0.00 0.00 94 1013.3
20260510073641 23 154 3.2 6.4 0.00 0.00 0.00 94 1013.4
20260510073137 23 174 4.8 4.8 0.00 0.00 0.00 94 1013.3
20260510072633 23 152 4.8 8.0 0.00 0.00 0.00 94 1013.5
20260510072130 23 136 3.2 8.0 0.00 0.00 0.00 94 1013.5
20260510071626 23 123 1.6 6.4 0.00 0.00 0.00 94 1013.6
20260510071124 23 86 1.6 6.4 0.00 0.00 0.00 94 1013.6
20260510070621 23 132 6.4 9.7 0.00 0.00 0.00 94 1013.8
20260510070119 23 159 8.0 8.0 0.00 0.00 0.00 94 1013.8
20260510065614 23 141 4.8 11.3 0.00 0.00 0.00 95 1013.8
20260510065110 23 119 1.6 8.0 0.00 0.00 0.00 95 1013.8
20260510064607 23 170 3.2 8.0 0.00 0.00 0.00 95 1013.7
20260510064104 23 111 0.0 6.4 0.00 0.00 0.00 95 1013.8
20260510063601 23 96 3.2 6.4 0.00 0.00 0.00 95 1014.0
20260510063058 23 153 4.8 4.8 0.00 0.00 0.00 95 1014.1
20260510062553 23 96 3.2 3.2 0.00 0.00 0.00 95 1014.1
20260510062049 23 164 3.2 3.2 0.00 0.00 0.00 95 1014.2
20260510061545 23 224 0.0 3.2 0.00 0.00 0.00 95 1014.2
20260510061042 23 89 0.0 0.0 0.00 0.00 0.00 96 1014.2
20260510060538 23 333 0.0 1.6 0.00 0.00 0.00 95 1014.4
20260510060035 23 89 0.0 1.6 0.00 0.00 0.00 95 1014.3
20260510055531 23 92 1.6 3.2 0.00 0.00 0.00 95 1014.4
20260510055029 23 77 0.0 3.2 0.00 0.00 0.00 96 1014.5
20260510054525 23 87 0.0 1.6 0.00 0.00 0.00 96 1014.7
20260510054020 23 89 3.2 3.2 0.00 0.00 0.00 96 1014.7
20260510053515 22 104 1.6 4.8 0.00 0.00 0.00 96 1014.7
20260510053012 22 155 1.6 6.4 0.00 0.00 0.00 97 1014.8
20260510052508 22 97 3.2 4.8 0.00 0.00 0.00 97 1014.9
20260510052004 22 89 1.6 4.8 0.00 0.00 0.00 97 1014.7
20260510051500 22 83 0.0 3.2 0.00 0.00 0.00 97 1015.0
20260510050956 22 85 1.6 3.2 0.00 0.00 0.00 97 1015.0
20260510050454 22 75 3.2 3.2 0.00 0.00 0.00 97 1015.0
20260510045951 22 62 0.0 3.2 0.00 0.00 0.00 97 1015.0
20260510045448 22 55 0.0 4.8 0.00 0.00 0.00 97 1014.7
20260510044944 23 85 3.2 4.8 0.00 0.00 0.00 98 1015.1
20260510044441 23 65 3.2 3.2 0.00 0.00 0.00 98 1014.9
20260510043938 23 78 1.6 4.8 0.00 0.00 0.00 98 1015.0
20260510043434 23 76 3.2 4.8 0.00 0.00 0.00 98 1015.1
20260510042932 23 84 0.0 3.2 0.00 0.00 0.00 98 1015.2
20260510042428 23 91 3.2 4.8 0.00 0.00 0.00 98 1015.2
20260510041924 23 31 3.2 6.4 0.00 0.00 0.00 98 1015.4
20260510041421 23 60 3.2 3.2 0.00 0.00 0.00 98 1015.3
20260510040919 23 51 3.2 6.4 0.00 0.00 0.00 98 1015.3
20260510040415 23 31 1.6 3.2 0.00 0.00 0.00 98 1015.3
20260510035911 23 4 3.2 4.8 0.00 0.08 0.08 98 1015.2
20260510035408 23 1 3.2 4.8 0.00 0.08 0.08 98 1015.2
20260510034902 23 6 6.4 6.4 0.00 0.08 0.08 98 1015.2
20260510034401 23 30 0.0 1.6 0.00 0.08 0.08 98 1015.3
20260510033857 23 8 1.6 3.2 0.00 0.08 0.08 98 1015.1
20260510033354 23 350 4.8 4.8 0.00 0.08 0.08 98 1015.1
20260510032850 24 321 3.2 3.2 0.00 0.08 0.08 97 1014.9
20260510032347 23 129 0.0 1.6 0.00 0.08 0.08 97 1014.9
20260510031843 23 131 0.0 3.2 0.00 0.08 0.08 97 1015.0
20260510031338 24 146 0.0 1.6 0.00 0.08 0.08 97 1014.8
20260510030838 24 155 3.2 3.2 0.00 0.08 0.08 96 1015.0
20260510030334 24 89 0.0 1.6 0.00 0.08 0.08 96 1014.7
20260510025832 24 104 0.0 1.6 0.00 0.08 0.08 96 1014.8
20260510025329 24 28 3.2 3.2 0.00 0.08 0.08 95 1014.8
20260510024826 24 0 0.0 3.2 0.00 0.08 0.08 95 1014.7
20260510024323 24 342 3.2 3.2 0.00 0.08 0.08 94 1014.9
20260510023819 24 45 1.6 3.2 0.05 0.08 0.08 93 1014.9
20260510023315 25 114 0.0 1.6 0.23 0.08 0.08 91 1014.8
20260510022813 25 131 3.2 3.2 0.30 0.05 0.05 89 1014.9
20260510022312 25 205 0.0 1.6 0.05 0.03 0.03 88 1015.0
20260510021811 25 191 6.4 6.4 0.00 0.00 0.00 88 1014.8
20260510021310 25 181 3.2 3.2 0.00 0.00 0.00 88 1014.7
20260510020805 25 189 3.2 3.2 0.00 0.00 0.00 88 1014.5
20260510020305 25 169 1.6 1.6 0.00 0.00 0.00 88 1014.6
20260510015802 25 32 0.0 0.0 0.00 0.00 0.00 88 1014.5
20260510015258 25 224 0.0 0.0 0.00 0.00 0.00 88 1014.4
20260510014753 25 119 0.0 0.0 0.00 0.00 0.00 88 1014.3
20260510014250 25 70 0.0 1.6 0.00 0.00 0.00 88 1014.1
20260510013746 25 353 0.0 3.2 0.00 0.00 0.00 88 1014.3
20260510013242 25 348 3.2 3.2 0.00 0.00 0.00 87 1014.3
20260510012737 25 326 1.6 3.2 0.00 0.00 0.00 87 1014.2
20260510012232 25 345 1.6 3.2 0.00 0.00 0.00 86 1014.1
20260510011731 25 269 0.0 0.0 0.00 0.00 0.00 86 1014.3
20260510011227 25 271 0.0 0.0 0.00 0.00 0.00 85 1014.3
20260510010725 25 211 1.6 1.6 0.00 0.00 0.00 85 1013.9
20260510010221 25 313 1.6 1.6 0.00 0.00 0.00 85 1013.8
20260510005718 26 293 0.0 0.0 0.00 0.00 0.00 84 1013.6
20260510005214 26 288 0.0 1.6 0.00 0.00 0.00 84 1013.8
20260510004707 26 225 3.2 4.8 0.00 0.00 0.00 84 1013.9
20260510004205 26 206 3.2 4.8 0.00 0.00 0.00 83 1013.8
20260510003702 26 293 3.2 6.4 0.00 0.00 0.00 83 1013.8
20260510003158 26 319 4.8 6.4 0.00 0.00 0.00 83 1013.7
20260510002657 26 349 4.8 4.8 0.00 0.00 0.00 83 1013.5
20260510002154 26 298 3.2 6.4 0.00 0.00 0.00 83 1013.6
20260510001651 26 321 4.8 4.8 0.00 0.00 0.00 82 1013.4
20260510001150 26 337 6.4 8.0 0.00 0.00 0.00 82 1013.5
20260510000650 26 298 8.0 11.3 0.00 0.00 0.00 82 1013.5
20260510000148 26 246 0.0 3.2 0.00 0.00 0.00 82 1013.5
20260509235644 26 283 3.2 6.4 0.00 0.00 0.00 82 1013.3
20260509235141 26 258 4.8 6.4 0.00 0.00 0.00 81 1013.3
20260509234637 26 343 3.2 4.8 0.00 0.00 0.00 81 1013.2
20260509234134 26 293 3.2 9.7 0.00 0.00 0.00 81 1013.3
20260509233632 26 272 6.4 9.7 0.00 0.00 0.00 81 1013.5
20260509233129 26 294 3.2 6.4 0.00 0.00 0.00 80 1013.2
20260509232625 26 312 9.7 14.5 0.00 0.00 0.00 80 1013.2
20260509232122 27 280 6.4 19.3 0.00 0.00 0.00 80 1013.1
20260509231619 27 285 3.2 6.4 0.00 0.00 0.00 78 1013.2
20260509231117 27 310 9.7 9.7 0.00 0.00 0.00 77 1013.2
20260509230613 27 311 17.7 22.5 0.00 0.00 0.00 76 1013.1
20260509230111 27 312 17.7 22.5 0.00 0.00 0.00 76 1013.0
20260509225606 27 272 8.0 16.1 0.00 0.00 0.00 75 1013.2
20260509225101 27 290 9.7 12.9 0.00 0.00 0.00 74 1012.9
20260509224557 27 300 16.1 20.9 0.00 0.00 0.00 74 1013.1
20260509224055 27 313 14.5 20.9 0.00 0.00 0.00 74 1012.9
20260509223551 27 286 19.3 24.1 0.00 0.00 0.00 74 1013.0
20260509223049 27 268 6.4 14.5 0.00 0.00 0.00 73 1012.8
20260509222545 28 311 9.7 11.3 0.00 0.00 0.00 73 1012.9
20260509222041 28 291 8.0 14.5 0.00 0.00 0.00 71 1012.8
20260509221537 28 296 12.9 14.5 0.00 0.00 0.00 70 1012.8
20260509221033 28 253 12.9 17.7 0.00 0.00 0.00 72 1012.6
20260509220529 28 254 3.2 14.5 0.00 0.00 0.00 71 1012.7
20260509220025 28 292 6.4 24.1 0.00 0.00 0.00 70 1012.5
20260509215521 28 269 8.0 16.1 0.00 0.00 0.00 68 1012.5
20260509215018 28 251 8.0 12.9 0.00 0.00 0.00 68 1012.2
20260509214515 29 216 6.4 11.3 0.00 0.00 0.00 67 1012.3
20260509214012 28 255 8.0 17.7 0.00 0.00 0.00 69 1012.2
20260509213508 29 271 9.7 12.9 0.00 0.00 0.00 67 1012.3
20260509213006 29 219 9.7 29.0 0.00 0.00 0.00 66 1012.3
20260509212502 29 207 19.3 20.9 0.00 0.00 0.00 64 1012.3
20260509211959 29 256 14.5 20.9 0.00 0.00 0.00 64 1012.3
20260509211454 29 245 11.3 12.9 0.00 0.00 0.00 67 1012.2
20260509210951 29 286 4.8 20.9 0.00 0.00 0.00 67 1012.1
20260509210449 30 290 16.1 19.3 0.00 0.00 0.00 64 1011.9
20260509205944 30 296 20.9 24.1 0.00 0.00 0.00 64 1011.9
20260509205439 30 254 6.4 22.5 0.00 0.00 0.00 64 1012.1
20260509204935 30 239 8.0 20.9 0.00 0.00 0.00 61 1012.1
20260509204431 30 260 11.3 22.5 0.00 0.00 0.00 61 1012.0
20260509203928 30 243 4.8 17.7 0.00 0.00 0.00 61 1012.1
20260509203424 30 251 11.3 16.1 0.00 0.00 0.00 60 1012.0
20260509202922 30 221 19.3 22.5 0.00 0.00 0.00 59 1012.0
20260509202417 30 263 14.5 24.1 0.00 0.00 0.00 60 1012.2
20260509201912 30 242 20.9 22.5 0.00 0.00 0.00 61 1011.9
20260509201408 30 218 14.5 25.7 0.00 0.00 0.00 61 1012.1
20260509200905 30 257 9.7 27.4 0.00 0.00 0.00 60 1012.0
20260509200359 30 269 6.4 22.5 0.00 0.00 0.00 60 1012.0
20260509195856 30 298 11.3 22.5 0.00 0.00 0.00 60 1012.2
20260509195356 30 251 20.9 27.4 0.00 0.00 0.00 59 1012.0
20260509194856 30 249 16.1 20.9 0.00 0.00 0.00 60 1012.0
20260509194353 30 280 6.4 33.8 0.00 0.00 0.00 58 1012.0